• In Czech Republic
  • List of Countries
  • For 7 days
  • Water Temperature
  • Satellite Maps
  • Weather Map
  • Weather Widgets
  • user-avatar
    Login

    Hourly Weather Barra

    Today, 22 August, Tuesday

    Time Temperature Precipitation Wind Pressure Humidity
    00:00 +16°C° 0 mm 1 mps 752 mmHg 86%
    01:00 +15°C° 0 mm 1 mps 752 mmHg 88%
    02:00 +15°C° 0 mm 1 mps 752 mmHg 89%
    03:00 +15°C° 0 mm 1 mps 752 mmHg 91%
    04:00 +15°C° 0 mm 2 mps 751 mmHg 91%
    05:00 +15°C° 0 mm 2 mps 752 mmHg 91%
    06:00 +15°C° 0 mm 2 mps 752 mmHg 90%
    07:00 +16°C° 0 mm 2 mps 752 mmHg 90%
    08:00 +19°C° 0 mm 2 mps 752 mmHg 77%
    09:00 +23°C° 0 mm 2 mps 752 mmHg 64%
    10:00 +28°C° 0 mm 2 mps 752 mmHg 46%
    11:00 +29°C° 0 mm 2 mps 752 mmHg 44%
    12:00 +30°C° 0 mm 2 mps 751 mmHg 41%
    13:00 +31°C° 0 mm 2 mps 751 mmHg 38%
    14:00 +30°C° 0 mm 2 mps 751 mmHg 42%
    15:00 +29°C° 0 mm 2 mps 750 mmHg 46%
    16:00 +28°C° 0 mm 3 mps 750 mmHg 51%
    17:00 +26°C° 0 mm 2 mps 750 mmHg 62%
    18:00 +23°C° 0 mm 2 mps 751 mmHg 73%
    19:00 +20°C° 0 mm 2 mps 751 mmHg 85%
    20:00 +19°C° 0 mm 2 mps 751 mmHg 87%
    21:00 +19°C° 0 mm 2 mps 752 mmHg 90%
    22:00 +18°C° 0 mm 2 mps 752 mmHg 92%
    23:00 +18°C° 0 mm 2 mps 752 mmHg 92%

    Tomorrow, 23 August, Wednesday

    Time Temperature Precipitation Wind Pressure Humidity
    00:00 +19°C° 0 mm 1 mps 752 mmHg 93%
    01:00 +19°C° 0 mm 1 mps 752 mmHg 93%
    02:00 +19°C° 0 mm 1 mps 752 mmHg 94%
    03:00 +19°C° 0 mm 1 mps 752 mmHg 94%
    04:00 +18°C° 0 mm 1 mps 752 mmHg 94%
    05:00 +19°C° 0 mm 1 mps 752 mmHg 95%
    06:00 +19°C° 0 mm 1 mps 752 mmHg 95%
    07:00 +19°C° 0 mm 1 mps 752 mmHg 95%
    08:00 +22°C° 0 mm 1 mps 752 mmHg 83%
    09:00 +24°C° 0 mm 1 mps 753 mmHg 71%
    10:00 +27°C° 0 mm 2 mps 753 mmHg 59%
    11:00 +28°C° 0 mm 2 mps 752 mmHg 55%
    12:00 +28°C° 0 mm 2 mps 752 mmHg 52%
    13:00 +29°C° 0 mm 3 mps 751 mmHg 49%
    14:00 +29°C° 0 mm 3 mps 751 mmHg 50%
    15:00 +28°C° 0 mm 2 mps 750 mmHg 51%
    16:00 +28°C° 0 mm 2 mps 750 mmHg 52%
    17:00 +26°C° 0 mm 2 mps 750 mmHg 62%
    18:00 +23°C° 0 mm 2 mps 751 mmHg 72%
    19:00 +20°C° 0 mm 2 mps 751 mmHg 82%
    20:00 +20°C° 0 mm 2 mps 751 mmHg 85%
    21:00 +19°C° 0 mm 2 mps 751 mmHg 89%
    22:00 +18°C° 0 mm 2 mps 752 mmHg 92%
    23:00 +18°C° 0 mm 2 mps 751 mmHg 93%

    Day after tomorrow, 24 August, Thursday

    Time Temperature Precipitation Wind Pressure Humidity
    00:00 +18°C° 0 mm 2 mps 751 mmHg 94%
    01:00 +18°C° 0 mm 2 mps 751 mmHg 94%
    02:00 +18°C° 0 mm 2 mps 751 mmHg 95%
    03:00 +19°C° 0 mm 1 mps 750 mmHg 96%
    04:00 +19°C° 0 mm 1 mps 750 mmHg 97%
    05:00 +19°C° 0 mm 1 mps 751 mmHg 97%
    06:00 +19°C° 0 mm 1 mps 751 mmHg 97%
    07:00 +19°C° 0 mm 1 mps 751 mmHg 97%
    08:00 +22°C° 0 mm 1 mps 751 mmHg 83%
    09:00 +25°C° 0 mm 1 mps 751 mmHg 70%
    10:00 +27°C° 0 mm 1 mps 752 mmHg 57%
    11:00 +28°C° 0 mm 2 mps 751 mmHg 52%
    12:00 +29°C° 0 mm 2 mps 750 mmHg 48%
    13:00 +30°C° 0 mm 2 mps 749 mmHg 44%
    14:00 +30°C° 0 mm 2 mps 749 mmHg 46%
    15:00 +29°C° 0 mm 2 mps 748 mmHg 47%
    16:00 +29°C° 0 mm 2 mps 748 mmHg 49%
    17:00 +27°C° 0 mm 2 mps 748 mmHg 59%
    18:00 +24°C° 0 mm 2 mps 749 mmHg 70%
    19:00 +21°C° 0 mm 2 mps 749 mmHg 80%
    20:00 +21°C° 0 mm 1 mps 750 mmHg 83%
    21:00 +21°C° 0 mm 1 mps 750 mmHg 86%
    22:00 +20°C° 0 mm 1 mps 750 mmHg 89%
    23:00 +20°C° 0 mm 1 mps 750 mmHg 89%

    25 August, Friday

    Time Temperature Precipitation Wind Pressure Humidity
    00:00 +20°C° 0 mm 1 mps 750 mmHg 89%
    01:00 +19°C° 0 mm 1 mps 750 mmHg 89%
    02:00 +19°C° 0 mm 1 mps 750 mmHg 84%
    03:00 +18°C° 0 mm 2 mps 750 mmHg 80%
    04:00 +18°C° 0 mm 2 mps 749 mmHg 76%
    05:00 +18°C° 0 mm 2 mps 750 mmHg 66%
    06:00 +18°C° 0 mm 3 mps 750 mmHg 55%
    07:00 +18°C° 0 mm 3 mps 751 mmHg 45%
    08:00 +20°C° 0 mm 3 mps 751 mmHg 39%
    09:00 +23°C° 0 mm 4 mps 751 mmHg 33%
    10:00 +26°C° 0 mm 4 mps 751 mmHg 27%
    11:00 +28°C° 0 mm 4 mps 751 mmHg 27%
    12:00 +29°C° 0 mm 3 mps 750 mmHg 27%
    13:00 +30°C° 0 mm 3 mps 749 mmHg 27%
    14:00 +30°C° 0 mm 3 mps 749 mmHg 28%
    15:00 +30°C° 0 mm 3 mps 749 mmHg 30%
    16:00 +29°C° 0 mm 3 mps 748 mmHg 31%
    17:00 +26°C° 0 mm 3 mps 749 mmHg 41%
    18:00 +24°C° 0 mm 3 mps 749 mmHg 51%
    19:00 +20°C° 0 mm 2 mps 750 mmHg 61%
    20:00 +19°C° 0 mm 2 mps 750 mmHg 67%
    21:00 +19°C° 0 mm 2 mps 751 mmHg 72%
    22:00 +18°C° 0 mm 2 mps 752 mmHg 77%
    23:00 +18°C° 0 mm 3 mps 751 mmHg 82%

    26 August, Saturday

    Time Temperature Precipitation Wind Pressure Humidity
    00:00 +18°C° 0 mm 3 mps 751 mmHg 87%
    01:00 +18°C° 0 mm 3 mps 751 mmHg 91%
    02:00 +18°C° 0.1 mm 3 mps 750 mmHg 93%
    03:00 +18°C° 0.1 mm 3 mps 750 mmHg 94%
    04:00 +18°C° 0.1 mm 4 mps 750 mmHg 95%
    05:00 +19°C° 0.1 mm 4 mps 751 mmHg 94%
    06:00 +19°C° 0.1 mm 4 mps 751 mmHg 92%
    07:00 +19°C° 0.1 mm 4 mps 752 mmHg 90%
    08:00 +21°C° 0.1 mm 5 mps 752 mmHg 82%
    09:00 +22°C° 0.1 mm 5 mps 752 mmHg 75%
    10:00 +23°C° 0.1 mm 5 mps 752 mmHg 67%
    11:00 +25°C° 0.1 mm 5 mps 752 mmHg 64%
    12:00 +25°C° 0.1 mm 5 mps 751 mmHg 62%
    13:00 +26°C° 0.1 mm 5 mps 751 mmHg 59%
    14:00 +26°C° 0 mm 5 mps 751 mmHg 59%
    15:00 +25°C° 0 mm 5 mps 750 mmHg 59%
    16:00 +25°C° 0 mm 5 mps 750 mmHg 58%
    17:00 +23°C° 0 mm 4 mps 751 mmHg 65%
    18:00 +21°C° 0 mm 4 mps 751 mmHg 71%
    19:00 +20°C° 0 mm 4 mps 752 mmHg 78%
    20:00 +19°C° 0 mm 4 mps 752 mmHg 81%
    21:00 +19°C° 0 mm 4 mps 752 mmHg 85%
    22:00 +18°C° 0 mm 4 mps 753 mmHg 89%
    23:00 +19°C° 0.1 mm 4 mps 752 mmHg 89%

    27 August, Sunday

    Time Temperature Precipitation Wind Pressure Humidity
    00:00 +19°C° 0.1 mm 4 mps 752 mmHg 89%
    01:00 +19°C° 0.1 mm 4 mps 752 mmHg 89%
    02:00 +19°C° 0.1 mm 4 mps 752 mmHg 90%
    03:00 +19°C° 0.1 mm 4 mps 751 mmHg 91%
    04:00 +19°C° 0.1 mm 4 mps 751 mmHg 92%
    05:00 +18°C° 0.1 mm 4 mps 752 mmHg 93%
    06:00 +18°C° 0.1 mm 4 mps 752 mmHg 93%
    07:00 +18°C° 0.1 mm 4 mps 753 mmHg 93%
    08:00 +20°C° 0.1 mm 4 mps 753 mmHg 84%
    09:00 +22°C° 0.1 mm 4 mps 753 mmHg 76%
    10:00 +23°C° 0.1 mm 5 mps 753 mmHg 67%
    11:00 +25°C° 0.1 mm 5 mps 752 mmHg 62%
    12:00 +26°C° 0.1 mm 5 mps 751 mmHg 58%
    13:00 +27°C° 0.1 mm 5 mps 751 mmHg 53%
    14:00 +27°C° 0 mm 5 mps 751 mmHg 54%
    15:00 +26°C° 0 mm 5 mps 750 mmHg 55%
    16:00 +26°C° 0 mm 5 mps 750 mmHg 56%
    17:00 +23°C° 0.1 mm 4 mps 751 mmHg 66%
    18:00 +21°C° 0.1 mm 4 mps 751 mmHg 76%
    19:00 +20°C° 0.1 mm 4 mps 752 mmHg 86%
    20:00 +19°C° 0.2 mm 4 mps 752 mmHg 89%
    21:00 +19°C° 0.2 mm 4 mps 752 mmHg 92%
    22:00 +19°C° 0.2 mm 4 mps 752 mmHg 94%
    23:00 +19°C° 0.3 mm 4 mps 752 mmHg 95%
    Show more